Погода в Остроленском

Россия / Челябинская область     53°41′03″N   59°43′29″E
темп.,
°C
ветер,
м/с
пор.,
м/с
влажн.,
%
обл.,
%
осадки,
мм/ч
давл.,
гПа
погр.,
м
9 мая, вс
вс923:00+13с2360100 0.0 101648
02:00+11ссв1164100 0.0 101510
05:00+10с1166100 0.0 101610
08:00+13в125298 0.0 1016230
11:00+18ссв343585 0.0 10151899
14:00+18ссв4533100 0.0 10142183
17:00+20ссв553160 0.0 10152454
20:00+17ссв484217 0.0 1016224
10 мая, пн
пн1023:00+12в22655 0.0 101735
02:00+11с47725 0.0 1019135
05:00+9ссв497818 0.0 1020182
08:00+11с367694 0.0 1021261
11:00+17св674619 0.0 10201599
14:00+20св67325 0.0 10202233
17:00+20св67305 0.0 10212328
20:00+17св48402 0.0 1022196
11 мая, вт
вт1123:00+12всв35470 0.0 102487
02:00+10всв22490 0.0 102616
05:00+8св22530 0.0 102711
08:00+12св23446 0.0 1028265
11:00+16всв3332100 0.0 10281358
14:00+19всв2226100 0.0 10281682
17:00+19св2225100 0.0 10281824
20:00+17в2235100 0.0 102824
12 мая, ср
ср1223:00+14юв1135100 0.0 102911
02:00+12з11403 0.0 102910
05:00+11сз12430 0.0 103010
08:00+16зсз22370 0.0 1030190
11:00+21ссз12275 0.0 10291418
14:00+23ссз12257 0.0 10282369
17:00+23ссв232599 0.0 10272498
20:00+20всв2236100 0.0 102714
13 мая, чт
чт1323:00+15всв49576 0.0 1028201
02:00+13всв235587 0.0 102940
05:00+12с225648 0.0 102912
08:00+16с124518 0.0 1029246
11:00+21с123516 0.0 10281275
14:00+24ссз233060 0.0 10261882
17:00+25с232879 0.0 10262227
20:00+22всв223961 0.0 102620